• In Uzbekistan
  • List of Countries
  • For 7 days
  • Water Temperature
  • Satellite Maps
  • Weather Map
  • Weather Widgets
  • user-avatar
    Login

    Hourly Weather Kisumu

    Today, 19 November, Sunday

    Time Temperature Precipitation Wind Pressure Humidity
    00:00 +21°C° 0.1 mm 2 mps 663 mmHg 76%
    01:00 +21°C° 0.1 mm 2 mps 663 mmHg 77%
    02:00 +20°C° 0 mm 2 mps 663 mmHg 79%
    03:00 +20°C° 0 mm 2 mps 663 mmHg 79%
    04:00 +20°C° 0 mm 2 mps 663 mmHg 78%
    05:00 +19°C° 0 mm 2 mps 663 mmHg 78%
    06:00 +21°C° 0 mm 2 mps 664 mmHg 71%
    07:00 +24°C° 0 mm 2 mps 665 mmHg 64%
    08:00 +27°C° 0 mm 2 mps 666 mmHg 56%
    09:00 +28°C° 0 mm 2 mps 665 mmHg 51%
    10:00 +30°C° 0 mm 2 mps 665 mmHg 45%
    11:00 +32°C° 0 mm 2 mps 665 mmHg 40%
    12:00 +31°C° 0 mm 2 mps 665 mmHg 43%
    13:00 +30°C° 0 mm 2 mps 664 mmHg 46%
    14:00 +30°C° 0 mm 2 mps 664 mmHg 48%
    15:00 +28°C° 0 mm 2 mps 663 mmHg 53%
    16:00 +27°C° 0 mm 1 mps 663 mmHg 58%
    17:00 +26°C° 0 mm 1 mps 663 mmHg 63%
    18:00 +25°C° 0 mm 1 mps 663 mmHg 65%
    19:00 +25°C° 0 mm 1 mps 664 mmHg 67%
    20:00 +24°C° 0 mm 1 mps 664 mmHg 69%
    21:00 +24°C° 0.2 mm 1 mps 664 mmHg 71%
    22:00 +23°C° 0.2 mm 1 mps 664 mmHg 73%
    23:00 +21°C° 0.2 mm 2 mps 664 mmHg 75%

    Tomorrow, 20 November, Monday

    Time Temperature Precipitation Wind Pressure Humidity
    00:00 +21°C° 0 mm 2 mps 664 mmHg 76%
    01:00 +20°C° 0 mm 2 mps 664 mmHg 77%
    02:00 +19°C° 0 mm 2 mps 663 mmHg 78%
    03:00 +19°C° 0 mm 2 mps 664 mmHg 77%
    04:00 +19°C° 0 mm 2 mps 664 mmHg 77%
    05:00 +19°C° 0 mm 2 mps 664 mmHg 76%
    06:00 +21°C° 0 mm 2 mps 664 mmHg 69%
    07:00 +24°C° 0 mm 2 mps 665 mmHg 62%
    08:00 +27°C° 0 mm 2 mps 666 mmHg 55%
    09:00 +28°C° 0 mm 2 mps 666 mmHg 49%
    10:00 +30°C° 0 mm 2 mps 666 mmHg 44%
    11:00 +32°C° 0 mm 1 mps 666 mmHg 39%
    12:00 +31°C° 0 mm 2 mps 665 mmHg 43%
    13:00 +30°C° 0 mm 2 mps 665 mmHg 47%
    14:00 +29°C° 0 mm 2 mps 664 mmHg 52%
    15:00 +28°C° 0.2 mm 2 mps 663 mmHg 58%
    16:00 +26°C° 0.2 mm 2 mps 663 mmHg 64%
    17:00 +24°C° 0.2 mm 1 mps 662 mmHg 70%
    18:00 +24°C° 0.3 mm 1 mps 663 mmHg 73%
    19:00 +23°C° 0.3 mm 1 mps 663 mmHg 75%
    20:00 +23°C° 0.3 mm 1 mps 664 mmHg 78%
    21:00 +22°C° 0.1 mm 1 mps 664 mmHg 79%
    22:00 +21°C° 0.1 mm 2 mps 664 mmHg 80%
    23:00 +20°C° 0.1 mm 2 mps 664 mmHg 81%

    Day after tomorrow, 21 November, Tuesday

    Time Temperature Precipitation Wind Pressure Humidity
    00:00 +20°C° 0 mm 2 mps 664 mmHg 81%
    01:00 +19°C° 0 mm 2 mps 663 mmHg 81%
    02:00 +19°C° 0 mm 2 mps 663 mmHg 81%
    03:00 +19°C° 0 mm 2 mps 663 mmHg 81%
    04:00 +19°C° 0 mm 2 mps 663 mmHg 80%
    05:00 +19°C° 0 mm 2 mps 663 mmHg 80%
    06:00 +21°C° 0 mm 2 mps 664 mmHg 73%
    07:00 +24°C° 0 mm 2 mps 665 mmHg 65%
    08:00 +27°C° 0 mm 2 mps 665 mmHg 57%
    09:00 +29°C° 0 mm 2 mps 665 mmHg 51%
    10:00 +31°C° 0 mm 1 mps 665 mmHg 45%
    11:00 +32°C° 0 mm 1 mps 665 mmHg 40%
    12:00 +32°C° 0 mm 1 mps 665 mmHg 42%
    13:00 +31°C° 0 mm 2 mps 664 mmHg 45%
    14:00 +30°C° 0 mm 2 mps 663 mmHg 48%
    15:00 +29°C° 0.4 mm 2 mps 662 mmHg 54%
    16:00 +27°C° 0.4 mm 1 mps 662 mmHg 60%
    17:00 +26°C° 0.4 mm 1 mps 662 mmHg 66%
    18:00 +25°C° 0.7 mm 1 mps 662 mmHg 71%
    19:00 +24°C° 0.7 mm 1 mps 663 mmHg 76%
    20:00 +23°C° 0.7 mm 1 mps 663 mmHg 80%
    21:00 +23°C° 0.1 mm 1 mps 663 mmHg 80%
    22:00 +23°C° 0.1 mm 1 mps 663 mmHg 80%
    23:00 +23°C° 0.1 mm 1 mps 663 mmHg 79%

    22 November, Wednesday

    Time Temperature Precipitation Wind Pressure Humidity
    00:00 +21°C° 0 mm 2 mps 663 mmHg 80%
    01:00 +21°C° 0 mm 2 mps 663 mmHg 80%
    02:00 +21°C° 0 mm 2 mps 662 mmHg 80%
    03:00 +20°C° 0 mm 2 mps 662 mmHg 81%
    04:00 +20°C° 0 mm 2 mps 662 mmHg 82%
    05:00 +19°C° 0 mm 2 mps 662 mmHg 83%
    06:00 +23°C° 0 mm 2 mps 663 mmHg 75%
    07:00 +25°C° 0 mm 2 mps 664 mmHg 67%
    08:00 +27°C° 0 mm 2 mps 665 mmHg 58%
    09:00 +29°C° 0 mm 1 mps 665 mmHg 53%
    10:00 +31°C° 0 mm 1 mps 665 mmHg 47%
    11:00 +32°C° 0 mm 1 mps 665 mmHg 42%
    12:00 +32°C° 0.1 mm 1 mps 664 mmHg 45%
    13:00 +31°C° 0.1 mm 2 mps 663 mmHg 48%
    14:00 +30°C° 0.1 mm 2 mps 662 mmHg 51%
    15:00 +29°C° 0.7 mm 2 mps 662 mmHg 58%
    16:00 +27°C° 0.7 mm 1 mps 662 mmHg 65%
    17:00 +25°C° 0.7 mm 1 mps 661 mmHg 72%
    18:00 +25°C° 0.9 mm 1 mps 662 mmHg 75%
    19:00 +24°C° 0.9 mm 1 mps 663 mmHg 78%
    20:00 +23°C° 0.9 mm 1 mps 663 mmHg 81%
    21:00 +23°C° 0.5 mm 1 mps 663 mmHg 82%
    22:00 +23°C° 0.5 mm 2 mps 663 mmHg 83%
    23:00 +21°C° 0.5 mm 2 mps 663 mmHg 84%

    23 November, Thursday

    Time Temperature Precipitation Wind Pressure Humidity
    00:00 +21°C° 0.4 mm 2 mps 662 mmHg 84%
    01:00 +20°C° 0.4 mm 2 mps 662 mmHg 85%
    02:00 +20°C° 0.4 mm 2 mps 661 mmHg 86%
    03:00 +20°C° 0 mm 2 mps 662 mmHg 85%
    04:00 +20°C° 0 mm 2 mps 662 mmHg 85%
    05:00 +20°C° 0 mm 2 mps 662 mmHg 84%
    06:00 +23°C° 0 mm 2 mps 663 mmHg 78%
    07:00 +24°C° 0 mm 2 mps 664 mmHg 72%
    08:00 +26°C° 0 mm 2 mps 665 mmHg 66%
    09:00 +28°C° 0.3 mm 1 mps 665 mmHg 59%
    10:00 +30°C° 0.3 mm 1 mps 665 mmHg 53%
    11:00 +32°C° 0.3 mm 1 mps 665 mmHg 46%
    12:00 +31°C° 0.2 mm 1 mps 664 mmHg 50%
    13:00 +30°C° 0.2 mm 1 mps 663 mmHg 53%
    14:00 +30°C° 0.2 mm 2 mps 662 mmHg 56%
    15:00 +28°C° 1.9 mm 1 mps 662 mmHg 64%
    16:00 +26°C° 1.9 mm 1 mps 662 mmHg 72%
    17:00 +24°C° 1.9 mm 1 mps 661 mmHg 81%
    18:00 +24°C° 1.6 mm 1 mps 662 mmHg 83%
    19:00 +23°C° 1.6 mm 1 mps 663 mmHg 86%
    20:00 +23°C° 1.6 mm 1 mps 663 mmHg 88%
    21:00 +22°C° 0.5 mm 1 mps 663 mmHg 89%
    22:00 +21°C° 0.5 mm 2 mps 663 mmHg 89%
    23:00 +21°C° 0.5 mm 2 mps 663 mmHg 89%

    24 November, Friday

    Time Temperature Precipitation Wind Pressure Humidity
    00:00 +20°C° 0.3 mm 2 mps 663 mmHg 89%
    01:00 +20°C° 0.3 mm 2 mps 662 mmHg 89%
    02:00 +20°C° 0.3 mm 2 mps 662 mmHg 89%
    03:00 +20°C° 0.3 mm 2 mps 662 mmHg 89%
    04:00 +20°C° 0.3 mm 2 mps 663 mmHg 89%
    05:00 +19°C° 0.3 mm 2 mps 663 mmHg 89%
    06:00 +21°C° 0.4 mm 2 mps 664 mmHg 82%
    07:00 +24°C° 0.4 mm 2 mps 664 mmHg 76%
    08:00 +26°C° 0.4 mm 1 mps 665 mmHg 69%
    09:00 +27°C° 0.7 mm 1 mps 665 mmHg 64%
    10:00 +28°C° 0.7 mm 1 mps 664 mmHg 59%
    11:00 +30°C° 0.7 mm 1 mps 664 mmHg 55%
    12:00 +29°C° 0.9 mm 2 mps 663 mmHg 59%
    13:00 +28°C° 0.9 mm 2 mps 662 mmHg 64%
    14:00 +27°C° 0.9 mm 3 mps 662 mmHg 69%
    15:00 +26°C° 1.8 mm 3 mps 662 mmHg 75%
    16:00 +25°C° 1.8 mm 2 mps 662 mmHg 81%
    17:00 +23°C° 1.8 mm 2 mps 662 mmHg 87%
    18:00 +23°C° 0.9 mm 1 mps 662 mmHg 88%
    19:00 +22°C° 0.9 mm 1 mps 663 mmHg 89%
    20:00 +20°C° 0.9 mm 0 mps 663 mmHg 89%
    21:00 +22°C° 0.3 mm 1 mps 663 mmHg 90%
    22:00 +21°C° 0.3 mm 1 mps 663 mmHg 90%
    23:00 +21°C° 0.3 mm 1 mps 663 mmHg 90%
    Show more